EDW233 MDPP-MKJS

Flight info

Callsign EDW233
Flight time 1h 23m
Altitude 38000
Route RETAK3C RETAK UM348 ALBBE DCT BODLO DCT BYGON UL599 DAVOL/N0484F390 UL599 MLY/N0471F240 A301 SAVEM UW6 SIA LENAR7
Aircraft B77W/H-SDE1E2E3FGHIJ2J3J4J5M1RWXY/LB1D1

Departure

Time 2026-04-23 12:48
Airport Gregorio Luperon International Airport (MDPP)

Arrival

Time 2026-04-23 14:11
Airport Sangster International Airport (MKJS)
Time Latitude Longitude Altitude Speed Heading
2026-04-23 12:32 19.75609 -70.56498 43 ft 0 kts 163°
2026-04-23 12:40 19.75612 -70.56499 43 ft 2 kts 162°
2026-04-23 12:40 19.75628 -70.56504 39 ft 2 kts 167°
2026-04-23 12:40 19.75645 -70.56507 35 ft 2 kts 175°
2026-04-23 12:41 19.75661 -70.56507 35 ft 2 kts 189°
2026-04-23 12:41 19.75677 -70.56502 33 ft 2 kts 222°
2026-04-23 12:41 19.75686 -70.56489 33 ft 1 kts 251°
2026-04-23 12:41 19.75687 -70.56487 33 ft 0 kts 251°
2026-04-23 12:43 19.75684 -70.56495 33 ft 2 kts 252°
2026-04-23 12:43 19.75678 -70.56517 34 ft 6 kts 255°
2026-04-23 12:43 19.75658 -70.56584 34 ft 9 kts 250°
2026-04-23 12:44 19.75641 -70.56634 36 ft 14 kts 250°
2026-04-23 12:44 19.75604 -70.56746 36 ft 16 kts 250°
2026-04-23 12:44 19.75570 -70.56865 33 ft 18 kts 255°
2026-04-23 12:44 19.75539 -70.56997 29 ft 20 kts 259°
2026-04-23 12:45 19.75599 -70.57124 27 ft 20 kts 313°
2026-04-23 12:45 19.75686 -70.57231 27 ft 20 kts 293°
2026-04-23 12:45 19.75672 -70.57384 26 ft 28 kts 254°
2026-04-23 12:45 19.75610 -70.57604 29 ft 32 kts 253°
2026-04-23 12:46 19.75550 -70.57818 32 ft 30 kts 253°
2026-04-23 12:46 19.75485 -70.58041 33 ft 32 kts 252°
2026-04-23 12:46 19.75400 -70.58290 32 ft 29 kts 242°
2026-04-23 12:46 19.75373 -70.58375 32 ft 2 kts 300°
2026-04-23 12:47 19.75388 -70.58377 32 ft 4 kts 11°
2026-04-23 12:47 19.75415 -70.58306 33 ft 27 kts 73°
2026-04-23 12:47 19.75555 -70.57825 32 ft 110 kts 73°
2026-04-23 12:47 19.75850 -70.56802 42 ft 175 kts 73°
2026-04-23 12:48 19.76238 -70.55486 516 ft 193 kts 72°
2026-04-23 12:48 19.76628 -70.54130 1422 ft 188 kts 74°
2026-04-23 12:48 19.77007 -70.52795 2222 ft 194 kts 73°
2026-04-23 12:48 19.77517 -70.51359 2495 ft 223 kts 57°
2026-04-23 12:49 19.78791 -70.50302 2939 ft 247 kts 19°
2026-04-23 12:49 19.80536 -70.50295 3650 ft 260 kts 345°
2026-04-23 12:49 19.82297 -70.50805 4293 ft 266 kts 359°
2026-04-23 12:49 19.84085 -70.50360 5080 ft 267 kts 26°
2026-04-23 12:50 19.85793 -70.49522 5745 ft 274 kts 22°
2026-04-23 12:50 19.87596 -70.48828 6052 ft 278 kts 18°
2026-04-23 12:50 19.89462 -70.48203 6036 ft 282 kts 17°
2026-04-23 12:50 19.91328 -70.47606 6057 ft 280 kts 17°
2026-04-23 12:51 19.93234 -70.47227 6546 ft 280 kts
2026-04-23 12:51 19.95192 -70.47137 7449 ft 283 kts
2026-04-23 12:51 19.97151 -70.47224 8362 ft 285 kts 346°
2026-04-23 12:51 19.98926 -70.48168 9242 ft 290 kts 319°
2026-04-23 12:52 20.00130 -70.49879 10205 ft 293 kts 293°
2026-04-23 12:52 20.00591 -70.52013 10820 ft 306 kts 274°
2026-04-23 12:52 20.00702 -70.54380 11048 ft 336 kts 271°
2026-04-23 12:52 20.00756 -70.56981 11284 ft 366 kts 271°
2026-04-23 12:53 20.00799 -70.59754 11923 ft 380 kts 271°
2026-04-23 12:53 20.00849 -70.62597 12847 ft 388 kts 271°
2026-04-23 12:53 20.00908 -70.65475 13861 ft 392 kts 271°
2026-04-23 12:53 20.00978 -70.68383 14811 ft 394 kts 271°
2026-04-23 12:54 20.01054 -70.71298 15792 ft 396 kts 271°
2026-04-23 12:54 20.01135 -70.74233 16735 ft 398 kts 272°
2026-04-23 12:54 20.01217 -70.77155 17577 ft 405 kts 272°
2026-04-23 12:54 20.01303 -70.80168 18396 ft 409 kts 272°
2026-04-23 12:55 20.01390 -70.83232 19227 ft 411 kts 272°
2026-04-23 12:55 20.01475 -70.86249 19910 ft 416 kts 272°
2026-04-23 12:55 20.01561 -70.89341 20633 ft 420 kts 272°
2026-04-23 12:55 20.01647 -70.92454 21410 ft 423 kts 272°
2026-04-23 12:56 20.01733 -70.95584 22185 ft 425 kts 272°
2026-04-23 12:56 20.01819 -70.98736 22929 ft 428 kts 272°
2026-04-23 12:56 20.01905 -71.01913 23624 ft 432 kts 272°
2026-04-23 12:56 20.01991 -71.05117 24190 ft 435 kts 272°
2026-04-23 12:57 20.02078 -71.08338 24781 ft 437 kts 272°
2026-04-23 12:57 20.02164 -71.11579 25356 ft 440 kts 271°
2026-04-23 12:57 20.02367 -71.14829 25894 ft 443 kts 279°
2026-04-23 12:57 20.03210 -71.17972 26338 ft 445 kts 288°
2026-04-23 12:58 20.04252 -71.21091 26773 ft 450 kts 288°
2026-04-23 12:58 20.05306 -71.24237 27311 ft 452 kts 288°
2026-04-23 12:58 20.06349 -71.27399 27883 ft 454 kts 287°
2026-04-23 12:58 20.07376 -71.30578 28423 ft 456 kts 287°
2026-04-23 12:59 20.08396 -71.33779 28890 ft 458 kts 286°
2026-04-23 12:59 20.09412 -71.37002 29328 ft 461 kts 286°
2026-04-23 12:59 20.10431 -71.40247 29743 ft 463 kts 286°
2026-04-23 12:59 20.11451 -71.43501 30174 ft 465 kts 286°
2026-04-23 13:00 20.12474 -71.46762 30652 ft 463 kts 285°
2026-04-23 13:00 20.13489 -71.49994 31273 ft 458 kts 285°
2026-04-23 13:00 20.14492 -71.53189 31906 ft 453 kts 285°
2026-04-23 13:00 20.15486 -71.56360 32477 ft 450 kts 285°
2026-04-23 13:01 20.16472 -71.59509 33019 ft 447 kts 284°
2026-04-23 13:01 20.17451 -71.62641 33538 ft 445 kts 284°
2026-04-23 13:01 20.18427 -71.65759 34041 ft 443 kts 284°
2026-04-23 13:01 20.19396 -71.68858 34481 ft 441 kts 284°
2026-04-23 13:02 20.20503 -71.71906 34853 ft 443 kts 289°
2026-04-23 13:02 20.21799 -71.74885 35234 ft 443 kts 290°
2026-04-23 13:02 20.23117 -71.77847 35600 ft 442 kts 290°
2026-04-23 13:02 20.24394 -71.80810 35975 ft 440 kts 289°
2026-04-23 13:03 20.25621 -71.83748 36810 ft 425 kts 288°
2026-04-23 13:03 20.26783 -71.86599 37638 ft 415 kts 287°
2026-04-23 13:03 20.27896 -71.89406 38066 ft 410 kts 287°
2026-04-23 13:03 20.28994 -71.92232 38052 ft 416 kts 287°
2026-04-23 13:04 20.31225 -71.98004 38071 ft 427 kts 287°
2026-04-23 13:04 20.33524 -72.03913 38070 ft 435 kts 287°
2026-04-23 13:05 20.35844 -72.09881 38064 ft 434 kts 284°
2026-04-23 13:05 20.36552 -72.12968 38054 ft 425 kts 272°
2026-04-23 13:05 20.36637 -72.16096 38063 ft 422 kts 264°
2026-04-23 13:06 20.34952 -72.25253 38059 ft 417 kts 251°
2026-04-23 13:06 20.33899 -72.28078 38064 ft 402 kts 247°
2026-04-23 13:07 20.32777 -72.30756 38038 ft 390 kts 246°
2026-04-23 13:07 20.30532 -72.35967 38048 ft 385 kts 246°
2026-04-23 13:08 20.28316 -72.41136 38051 ft 383 kts 246°
2026-04-23 13:08 20.26127 -72.46297 38059 ft 382 kts 246°
2026-04-23 13:09 20.23959 -72.51427 38056 ft 383 kts 246°
2026-04-23 13:09 20.21774 -72.56602 38057 ft 384 kts 246°
2026-04-23 13:10 20.19574 -72.61811 38065 ft 386 kts 246°
2026-04-23 13:10 20.17365 -72.67033 38062 ft 388 kts 246°
2026-04-23 13:11 20.15145 -72.72279 38060 ft 389 kts 246°
2026-04-23 13:11 20.12915 -72.77541 38056 ft 390 kts 246°
2026-04-23 13:12 20.10680 -72.82810 38055 ft 391 kts 246°
2026-04-23 13:12 20.08444 -72.88075 38054 ft 391 kts 246°
2026-04-23 13:13 20.06207 -72.93338 38055 ft 390 kts 246°
2026-04-23 13:13 20.03971 -72.98593 38056 ft 390 kts 246°
2026-04-23 13:14 20.01734 -73.03847 38044 ft 390 kts 246°
2026-04-23 13:14 19.99499 -73.09089 38055 ft 389 kts 246°
2026-04-23 13:15 19.97269 -73.14315 38049 ft 388 kts 246°
2026-04-23 13:15 19.95039 -73.19535 38051 ft 387 kts 246°
2026-04-23 13:16 19.92811 -73.24748 38049 ft 387 kts 246°
2026-04-23 13:16 19.90580 -73.29961 38056 ft 389 kts 246°
2026-04-23 13:17 19.88335 -73.35204 38051 ft 391 kts 246°
2026-04-23 13:17 19.86083 -73.40455 38048 ft 391 kts 246°
2026-04-23 13:18 19.83830 -73.45706 38044 ft 391 kts 246°
2026-04-23 13:18 19.81573 -73.50959 38045 ft 391 kts 246°
2026-04-23 13:19 19.79314 -73.56212 38042 ft 391 kts 246°
2026-04-23 13:19 19.77052 -73.61468 38040 ft 392 kts 246°
2026-04-23 13:20 19.74787 -73.66725 38040 ft 392 kts 246°
2026-04-23 13:20 19.72518 -73.71987 38039 ft 392 kts 246°
2026-04-23 13:21 19.70248 -73.77246 38037 ft 392 kts 246°
2026-04-23 13:21 19.67978 -73.82499 38038 ft 392 kts 246°
2026-04-23 13:22 19.65718 -73.87725 38039 ft 392 kts 246°
2026-04-23 13:22 19.63444 -73.92978 38036 ft 392 kts 246°
2026-04-23 13:23 19.61167 -73.98232 38037 ft 392 kts 246°
2026-04-23 13:23 19.58889 -74.03485 38039 ft 392 kts 246°
2026-04-23 13:24 19.56607 -74.08742 38043 ft 392 kts 246°
2026-04-23 13:24 19.54322 -74.14000 38038 ft 393 kts 246°
2026-04-23 13:25 19.52035 -74.19259 38042 ft 393 kts 246°
2026-04-23 13:25 19.49742 -74.24525 38036 ft 393 kts 246°
2026-04-23 13:26 19.47453 -74.29778 38035 ft 393 kts 246°
2026-04-23 13:26 19.45159 -74.35037 38045 ft 393 kts 246°
2026-04-23 13:27 19.43253 -74.39403 38035 ft 393 kts 246°
2026-04-23 13:27 19.40958 -74.44654 38033 ft 393 kts 246°
2026-04-23 13:28 19.38659 -74.49911 38032 ft 393 kts 246°
2026-04-23 13:28 19.36361 -74.55161 38026 ft 393 kts 246°
2026-04-23 13:29 19.34061 -74.60411 38036 ft 393 kts 246°
2026-04-23 13:29 19.31758 -74.65660 38034 ft 393 kts 246°
2026-04-23 13:30 19.29454 -74.70909 38033 ft 393 kts 245°
2026-04-23 13:30 19.27149 -74.76154 38032 ft 393 kts 245°
2026-04-23 13:31 19.24840 -74.81405 38034 ft 393 kts 245°
2026-04-23 13:31 19.22531 -74.86649 38033 ft 393 kts 245°
2026-04-23 13:32 19.20234 -74.91863 38034 ft 394 kts 245°
2026-04-23 13:32 19.17918 -74.97115 38037 ft 394 kts 245°
2026-04-23 13:33 19.15601 -75.02362 38037 ft 394 kts 245°
2026-04-23 13:33 19.13282 -75.07612 38032 ft 394 kts 245°
2026-04-23 13:34 19.10959 -75.12864 38028 ft 394 kts 245°
2026-04-23 13:34 19.08635 -75.18115 38029 ft 394 kts 245°
2026-04-23 13:35 19.06309 -75.23363 38030 ft 394 kts 245°
2026-04-23 13:35 19.03979 -75.28617 38029 ft 395 kts 245°
2026-04-23 13:36 19.01695 -75.33888 38030 ft 394 kts 249°
2026-04-23 13:36 19.00096 -75.39426 38037 ft 394 kts 253°
2026-04-23 13:37 18.98613 -75.45001 38035 ft 394 kts 253°
2026-04-23 13:37 18.97113 -75.50581 38027 ft 395 kts 253°
2026-04-23 13:38 18.95607 -75.56158 38029 ft 395 kts 253°
2026-04-23 13:38 18.94098 -75.61734 38029 ft 395 kts 253°
2026-04-23 13:39 18.92586 -75.67314 38030 ft 395 kts 253°
2026-04-23 13:39 18.91120 -75.72718 38007 ft 375 kts 253°
2026-04-23 13:40 18.89691 -75.77978 38026 ft 371 kts 253°
2026-04-23 13:40 18.88270 -75.83201 38029 ft 369 kts 253°
2026-04-23 13:41 18.86853 -75.88403 38036 ft 368 kts 253°
2026-04-23 13:41 18.85435 -75.93603 38033 ft 369 kts 253°
2026-04-23 13:42 18.84012 -75.98815 38032 ft 370 kts 253°
2026-04-23 13:42 18.82580 -76.04051 38028 ft 372 kts 253°
2026-04-23 13:43 18.81142 -76.09308 38015 ft 372 kts 253°
2026-04-23 13:43 18.80426 -76.11922 37797 ft 370 kts 253°
2026-04-23 13:43 18.79711 -76.14534 37380 ft 372 kts 253°
2026-04-23 13:43 18.78989 -76.17166 36931 ft 375 kts 253°
2026-04-23 13:44 18.78260 -76.19820 36500 ft 378 kts 253°
2026-04-23 13:44 18.77528 -76.22485 36092 ft 379 kts 253°
2026-04-23 13:44 18.76793 -76.25164 35709 ft 381 kts 253°
2026-04-23 13:44 18.76054 -76.27852 35338 ft 382 kts 253°
2026-04-23 13:45 18.75313 -76.30547 34951 ft 383 kts 253°
2026-04-23 13:45 18.74569 -76.33249 34558 ft 385 kts 253°
2026-04-23 13:45 18.73822 -76.35963 34159 ft 386 kts 253°
2026-04-23 13:45 18.73071 -76.38689 33731 ft 388 kts 253°
2026-04-23 13:46 18.72316 -76.41426 33286 ft 389 kts 253°
2026-04-23 13:46 18.71560 -76.44166 32834 ft 390 kts 253°
2026-04-23 13:46 18.70799 -76.46923 32370 ft 392 kts 253°
2026-04-23 13:46 18.70036 -76.49686 31922 ft 393 kts 253°
2026-04-23 13:47 18.69273 -76.52447 31575 ft 392 kts 253°
2026-04-23 13:47 18.68513 -76.55194 31293 ft 389 kts 253°
2026-04-23 13:47 18.67758 -76.57921 31020 ft 386 kts 253°
2026-04-23 13:47 18.67007 -76.60633 30724 ft 384 kts 253°
2026-04-23 13:48 18.66259 -76.63333 30406 ft 383 kts 253°
2026-04-23 13:48 18.65514 -76.66022 30093 ft 382 kts 253°
2026-04-23 13:48 18.64771 -76.68701 29733 ft 380 kts 253°
2026-04-23 13:48 18.64030 -76.71369 29245 ft 377 kts 254°
2026-04-23 13:49 18.63297 -76.74008 28756 ft 374 kts 254°
2026-04-23 13:49 18.62567 -76.76636 28255 ft 372 kts 254°
2026-04-23 13:49 18.61842 -76.79241 27768 ft 369 kts 254°
2026-04-23 13:49 18.61121 -76.81832 27289 ft 367 kts 254°
2026-04-23 13:50 18.60406 -76.84402 26814 ft 365 kts 254°
2026-04-23 13:50 18.59692 -76.86966 26344 ft 363 kts 254°
2026-04-23 13:50 18.58980 -76.89519 25894 ft 362 kts 254°
2026-04-23 13:50 18.58272 -76.92059 25416 ft 361 kts 254°
2026-04-23 13:51 18.57564 -76.94598 24950 ft 361 kts 254°
2026-04-23 13:51 18.56856 -76.97135 24480 ft 361 kts 254°
2026-04-23 13:51 18.56147 -76.99670 24021 ft 361 kts 254°
2026-04-23 13:51 18.55439 -77.02206 23549 ft 361 kts 254°
2026-04-23 13:52 18.54728 -77.04749 23026 ft 360 kts 254°
2026-04-23 13:52 18.54021 -77.07274 22547 ft 359 kts 254°
2026-04-23 13:52 18.53317 -77.09792 22085 ft 357 kts 254°
2026-04-23 13:52 18.52615 -77.12297 21633 ft 356 kts 254°
2026-04-23 13:53 18.51916 -77.14791 21185 ft 354 kts 254°
2026-04-23 13:53 18.51220 -77.17275 20745 ft 353 kts 254°
2026-04-23 13:53 18.50525 -77.19754 20307 ft 352 kts 254°
2026-04-23 13:53 18.49832 -77.22221 19870 ft 351 kts 254°
2026-04-23 13:54 18.49139 -77.24689 19430 ft 350 kts 254°
2026-04-23 13:54 18.48450 -77.27144 18986 ft 350 kts 254°
2026-04-23 13:54 18.47758 -77.29607 18547 ft 350 kts 254°
2026-04-23 13:54 18.47067 -77.32062 18075 ft 350 kts 254°
2026-04-23 13:55 18.46549 -77.34559 17608 ft 348 kts 262°
2026-04-23 13:55 18.46324 -77.37090 17159 ft 346 kts 267°
2026-04-23 13:55 18.46347 -77.39616 16713 ft 344 kts 273°
2026-04-23 13:55 18.46514 -77.42123 16283 ft 343 kts 274°
2026-04-23 13:56 18.46704 -77.44618 15868 ft 341 kts 275°
2026-04-23 13:56 18.46897 -77.47101 15441 ft 339 kts 275°
2026-04-23 13:56 18.47085 -77.49574 15029 ft 338 kts 275°
2026-04-23 13:56 18.47268 -77.52037 14619 ft 337 kts 275°
2026-04-23 13:57 18.47447 -77.54493 14212 ft 336 kts 275°
2026-04-23 13:57 18.47612 -77.56784 13819 ft 335 kts 275°
2026-04-23 13:57 18.47786 -77.59233 13372 ft 335 kts 275°
2026-04-23 13:57 18.47959 -77.61670 12951 ft 333 kts 275°
2026-04-23 13:58 18.48130 -77.64097 12541 ft 331 kts 275°
2026-04-23 13:58 18.48300 -77.66512 12139 ft 330 kts 275°
2026-04-23 13:58 18.48469 -77.68915 11753 ft 328 kts 275°
2026-04-23 13:58 18.48636 -77.71307 11354 ft 327 kts 275°
2026-04-23 13:59 18.48803 -77.73690 10966 ft 326 kts 275°
2026-04-23 13:59 18.48969 -77.76068 10576 ft 325 kts 275°
2026-04-23 13:59 18.49133 -77.78420 10370 ft 317 kts 274°
2026-04-23 13:59 18.49291 -77.80702 10228 ft 308 kts 275°
2026-04-23 14:00 18.49396 -77.82211 10130 ft 303 kts 275°
2026-04-23 14:00 18.49595 -77.85091 9866 ft 295 kts 275°
2026-04-23 14:00 18.49752 -77.87243 9512 ft 291 kts 277°
2026-04-23 14:00 18.50374 -77.89235 9168 ft 287 kts 303°
2026-04-23 14:01 18.51641 -77.90820 8909 ft 281 kts 315°
2026-04-23 14:01 18.53042 -77.92224 8727 ft 275 kts 317°
2026-04-23 14:01 18.54465 -77.93603 8455 ft 273 kts 318°
2026-04-23 14:01 18.55850 -77.94940 8263 ft 267 kts 318°
2026-04-23 14:02 18.57202 -77.96243 8114 ft 261 kts 318°
2026-04-23 14:02 18.58538 -77.97530 8014 ft 263 kts 318°
2026-04-23 14:02 18.59919 -77.98860 7942 ft 274 kts 318°
2026-04-23 14:02 18.61258 -78.00247 7825 ft 273 kts 306°
2026-04-23 14:03 18.61897 -78.02129 7565 ft 273 kts 270°
2026-04-23 14:03 18.61419 -78.04023 7292 ft 268 kts 236°
2026-04-23 14:03 18.60206 -78.05487 7031 ft 265 kts 220°
2026-04-23 14:03 18.58773 -78.06692 6751 ft 263 kts 214°
2026-04-23 14:04 18.57256 -78.07770 6463 ft 262 kts 210°
2026-04-23 14:04 18.55710 -78.08774 6178 ft 261 kts 209°
2026-04-23 14:04 18.54152 -78.09748 5848 ft 261 kts 208°
2026-04-23 14:04 18.52584 -78.10718 5568 ft 260 kts 208°
2026-04-23 14:05 18.51031 -78.11676 5281 ft 258 kts 208°
2026-04-23 14:05 18.49691 -78.12912 4884 ft 262 kts 237°
2026-04-23 14:05 18.48838 -78.14523 4813 ft 242 kts 229°
2026-04-23 14:05 18.47468 -78.15666 4396 ft 275 kts 199°
2026-04-23 14:06 18.45560 -78.15955 3887 ft 282 kts 169°
2026-04-23 14:06 18.43794 -78.15186 3607 ft 273 kts 139°
2026-04-23 14:06 18.42706 -78.13647 3460 ft 258 kts 108°
2026-04-23 14:06 18.42412 -78.11845 3349 ft 243 kts 95°
2026-04-23 14:07 18.42423 -78.10119 3209 ft 232 kts 78°
2026-04-23 14:07 18.43540 -78.07031 2940 ft 226 kts 67°
2026-04-23 14:07 18.44194 -78.05543 2626 ft 220 kts 66°
2026-04-23 14:08 18.44608 -78.04595 2401 ft 210 kts 67°
2026-04-23 14:08 18.45187 -78.03270 2181 ft 191 kts 66°
2026-04-23 14:08 18.45721 -78.02044 1916 ft 178 kts 67°
2026-04-23 14:08 18.46209 -78.00913 1691 ft 161 kts 66°
2026-04-23 14:09 18.46651 -77.99898 1482 ft 143 kts 67°
2026-04-23 14:09 18.47034 -77.99015 1332 ft 126 kts 68°
2026-04-23 14:09 18.47393 -77.98181 1192 ft 121 kts 68°
2026-04-23 14:09 18.47755 -77.97367 1054 ft 125 kts 68°
2026-04-23 14:10 18.48134 -77.96527 917 ft 128 kts 69°
2026-04-23 14:10 18.48487 -77.95667 745 ft 129 kts 70°
2026-04-23 14:10 18.48875 -77.94804 627 ft 129 kts 68°
2026-04-23 14:10 18.49245 -77.93973 407 ft 125 kts 71°
2026-04-23 14:11 18.49589 -77.93138 235 ft 123 kts 69°
2026-04-23 14:11 18.49939 -77.92337 71 ft 119 kts 70°
2026-04-23 14:11 18.50254 -77.91607 44 ft 88 kts 64°
2026-04-23 14:11 18.50447 -77.91160 39 ft 43 kts 65°
2026-04-23 14:12 18.50526 -77.90916 46 ft 27 kts 81°
2026-04-23 14:12 18.50530 -77.90747 41 ft 10 kts 97°
2026-04-23 14:12 18.50474 -77.90712 43 ft 14 kts 204°
2026-04-23 14:12 18.50386 -77.90861 41 ft 31 kts 242°
2026-04-23 14:13 18.50316 -77.91033 44 ft 23 kts 245°
2026-04-23 14:13 18.50251 -77.91183 42 ft 23 kts 245°
2026-04-23 14:13 18.50199 -77.91295 43 ft 12 kts 232°
2026-04-23 14:13 18.50132 -77.91317 41 ft 14 kts 214°
2026-04-23 14:14 18.50082 -77.91401 43 ft 11 kts 244°
2026-04-23 14:14 18.50052 -77.91473 45 ft 8 kts 247°
2026-04-23 14:14 18.50031 -77.91514 39 ft 5 kts 222°
2026-04-23 14:14 18.49995 -77.91508 41 ft 6 kts 154°
2026-04-23 14:15 18.49969 -77.91496 44 ft 3 kts 155°
2026-04-23 14:15 18.49962 -77.91492 38 ft 0 kts 155°